This demonstration page uses our WeatherBlox Daily Observations layout. Learn more.

Left ArrowRight Arrow

53.62937, 11.41316

Hourly Observations for February 19, 2017

Temp ( °F °C ) Dew Point ( °F °C ) Humidity (%) Winds ( mph kmh ) Pressure ( in mb ) Visibility ( mi km ) Precip ( " mm )
7:20 am 07:20 Mostly Cloudy 39 4 34 1 81 81 SW 8 13 30.03 1017 4 6 N/A
7:50 am 07:50 Mostly Cloudy 37 3 34 1 87 87 SSW 8 13 30.03 1017 4 6 N/A
8:20 am 08:20 Mostly Cloudy 37 3 34 1 87 87 SSW 8 13 30.03 1017 4 7 N/A
8:50 am 08:50 Mostly Cloudy 39 4 34 1 81 81 SSW 9 15 30.03 1017 5 8 N/A
9:20 am 09:20 Mostly Cloudy 39 4 36 2 87 87 SSW 7 11 30.03 1017 5 8 N/A
9:50 am 09:50 Mostly Cloudy 41 5 36 2 81 81 SSW 6 9 30.03 1017 5 8 N/A
10:20 am 10:20 Cloudy with Drizzle 41 5 36 2 81 81 SW 9 15 30.03 1017 5 8 N/A
10:50 am 10:50 Cloudy with Light Rain 39 4 37 3 93 93 SW 9 15 30.03 1017 3 5 N/A
11:20 am 11:20 Cloudy with Light Rain 39 4 37 3 93 93 SW 9 15 30.00 1016 3 5 N/A
11:50 am 11:50 Cloudy with Light Rain 39 4 39 4 100 100 SW 9 15 30.00 1016 3 5 N/A
12:20 pm 12:20 Mostly Cloudy with Drizzle 41 5 39 4 93 93 WSW 10 17 30.00 1016 3 5 N/A
12:50 pm 12:50 Mostly Cloudy with Drizzle 41 5 39 4 93 93 SW 12 19 30.00 1016 3 5 N/A
1:20 pm 13:20 Cloudy with Drizzle 41 5 39 4 93 93 WSW 12 19 30.00 1016 2 3 N/A
1:50 pm 13:50 Cloudy with Mist and Fog 41 5 39 4 93 93 WSW 10 17 30.00 1016 2 3 N/A
2:20 pm 14:20 Cloudy with Mist and Fog 41 5 41 5 100 100 WSW 10 17 29.97 1015 2 3 N/A
2:50 pm 14:50 Cloudy with Mist and Fog 41 5 36 2 81 81 WSW 12 19 29.97 1015 1 2 N/A
3:20 pm 15:20 Cloudy with Mist and Fog 41 5 41 5 100 100 WSW 10 17 29.97 1015 1 1 N/A
3:50 pm 15:50 Cloudy with Mist and Fog 41 5 41 5 100 100 WSW 10 17 29.97 1015 2 3 N/A
4:20 pm 16:20 Cloudy with Mist and Fog 41 5 41 5 100 100 WSW 10 17 29.97 1015 2 4 N/A
4:50 pm 16:50 Cloudy with Mist and Fog 41 5 41 5 100 100 WSW 13 20 29.97 1015 1 2 N/A
5:20 pm 17:20 Cloudy with Mist and Fog 43 6 41 5 93 93 WSW 10 17 29.97 1015 1 2 N/A
5:50 pm 17:50 Cloudy with Mist and Fog 43 6 41 5 93 93 W 12 19 30.00 1016 1 2 N/A
6:20 pm 18:20 Cloudy with Mist and Fog 43 6 41 5 93 93 W 12 19 30.00 1016 1 1 N/A

Powered by AerisWeather